Buffalo, NY

1:05 AM EST on February 23, 2017 (GMT -0500)
Buffalo Niagara International

Weather History for KBUF - December, 2011

Change the Weather History Date:

Friday, December 23, 2011

  Actual Average Record
Temperature  
Mean Temperature 30 °F 28 °F  
Max Temperature 37 °F 34 °F 65 °F (2015)
Min Temperature 23 °F 22 °F -5 °F (1960)
Degree Days  
Heating Degree Days 35 37  
Month to date heating degree days 657 778  
Since 1 July heating degree days 1676 2111  
Cooling Degree Days 0 0  
Month to date cooling degree days 0 0  
Year to date cooling degree days 776 544  
Moisture  
Dew Point 25 °F    
Average Humidity 75    
Maximum Humidity 92    
Minimum Humidity 58    
Precipitation  
Precipitation 0.03 in 0.13 in 1.73 in (1878)
Month to date precipitation 3.03 2.89  
Year to date precipitation 48.97 39.48  
Snow  
Snow T in 1.00 in 12.60 in (1976)
Month to date snowfall 3.0 19.2  
Since 1 July snowfall 3.0 28.0  
Snow Depth 0.00 in    
Sea Level Pressure  
Sea Level Pressure 30.15 in    
Wind  
Wind Speed 8 mph (NNW)    
Max Wind Speed 20 mph    
Max Gust Speed 26 mph    
Visibility 7 miles    
Events Rain , Snow    
T = Trace of Precipitation, MM = Missing Value Source: NWS Daily Summary

Daily Weather History Graph

Daily Weather History Graph

Search for Another Location

Airport or City:

Trip Planner

Search our weather history database for the weather conditions in past years. The results will help you decide how hot, cold, wet, or windy it might be!

Date:

Astronomy

Dec. 23, 2011 Rise Set
Actual Time 7:43 AM EST 4:44 PM EST
Civil Twilight 7:11 AM EST 5:16 PM EST
Nautical Twilight 6:35 AM EST 5:52 PM EST
Astronomical Twilight 6:00 AM EST 6:27 PM EST
Moon 6:31 AM EST 3:50 PM EST
Length of Visible Light 10h 05m
Length of Day
9h 00m
Waning Crescent, 1% of the Moon is Illuminated
Dec 23
Waning Crescent
Dec 24
New
Jan 1
First Quarter
Jan 9
Full
Jan 16
Last Quarter

Hourly Weather History & Observations

Time (EST) Temp. Windchill Dew Point Humidity Pressure Visibility Wind Dir Wind Speed Gust Speed Precip Events Conditions
12:51 AM 35.6 °F 29.9 °F 33.8 °F 93% 29.96 in 3.0 mi North 6.9 mph - 0.02 in Rain , Snow Light Rain
12:54 AM 35.6 °F 30.7 °F 33.8 °F 93% 29.96 in 3.0 mi North 5.8 mph - N/A Rain , Snow Light Rain
1:19 AM 35.6 °F 31.7 °F 33.8 °F 93% 29.97 in 3.0 mi NNW 4.6 mph - 0.00 in Rain , Snow Light Rain
1:40 AM 35.6 °F 31.7 °F 33.8 °F 93% 29.97 in 3.0 mi NNW 4.6 mph - 0.00 in Snow Light Drizzle
1:54 AM 36.0 °F 33.3 °F 34.0 °F 93% 29.99 in 3.0 mi NNW 3.5 mph - 0.00 in Snow Light Drizzle
2:20 AM 35.6 °F 30.7 °F 33.8 °F 93% 29.98 in 3.0 mi NNW 5.8 mph - 0.00 in Rain , Snow Light Rain
2:54 AM 36.0 °F 31.1 °F 34.0 °F 93% 30.01 in 4.0 mi NW 5.8 mph - 0.00 in Rain Light Rain
3:54 AM 36.0 °F 31.1 °F 34.0 °F 93% 30.01 in 5.0 mi WNW 5.8 mph - 0.00 in Rain Light Rain
4:54 AM 36.0 °F 29.0 °F 33.1 °F 89% 30.03 in 5.0 mi NW 9.2 mph - 0.01 in Rain Light Rain
5:54 AM 36.0 °F 29.0 °F 33.1 °F 89% 30.06 in 10.0 mi NNW 9.2 mph - 0.00 in Snow Light Snow
6:54 AM 35.1 °F 29.3 °F 32.0 °F 89% 30.09 in 10.0 mi NNW 6.9 mph - 0.00 in Snow Light Snow
7:49 AM 35.6 °F 28.6 °F 32.0 °F 87% 30.09 in 8.0 mi NW 9.2 mph - 0.00 in Snow Light Snow
7:54 AM 35.1 °F 27.9 °F 32.0 °F 89% 30.12 in 8.0 mi NW 9.2 mph - 0.00 in Snow Light Snow
8:12 AM 33.8 °F 22.8 °F 30.2 °F 87% 30.11 in 1.0 mi NW 18.4 mph 24.2 mph 0.00 in Snow Light Snow
8:51 AM 32.0 °F 22.1 °F 28.4 °F 87% 30.13 in 2.0 mi NNW 13.8 mph - 0.00 in Snow Light Snow
8:54 AM 32.0 °F 21.2 °F 28.0 °F 85% 30.16 in 2.0 mi NNW 16.1 mph - 0.00 in Snow Light Snow
9:09 AM 30.2 °F 19.3 °F 28.4 °F 93% 30.14 in 3.0 mi NNW 15.0 mph - 0.00 in Snow Light Snow
9:47 AM 30.2 °F 19.8 °F 26.6 °F 86% 30.15 in 9.0 mi NNW 13.8 mph 24.2 mph 0.00 in Snow Light Snow
9:54 AM 30.9 °F 20.7 °F 26.1 °F 82% 30.18 in 9.0 mi NNW 13.8 mph - 0.00 in Snow Light Snow
10:44 AM 30.2 °F 19.8 °F 24.8 °F 80% 30.18 in 10.0 mi NNW 13.8 mph - 0.00 in   Overcast
10:54 AM 30.0 °F 20.0 °F 24.1 °F 79% 30.22 in 10.0 mi NW 12.7 mph - 0.00 in   Overcast
11:54 AM 28.9 °F 18.2 °F 21.9 °F 75% 30.22 in 10.0 mi NNW 13.8 mph - 0.00 in Snow Light Snow
12:54 PM 28.9 °F 19.2 °F 19.0 °F 67% 30.23 in 10.0 mi NW 11.5 mph - 0.00 in   Mostly Cloudy
1:30 PM 28.4 °F 18.5 °F 17.6 °F 64% 30.20 in 10.0 mi NW 11.5 mph 19.6 mph N/A   Scattered Clouds
1:54 PM 28.0 °F 18.6 °F 15.1 °F 58% 30.24 in 10.0 mi NW 10.4 mph - N/A   Scattered Clouds
2:54 PM 28.0 °F 19.3 °F 15.1 °F 58% 30.25 in 10.0 mi NNW 9.2 mph - N/A   Scattered Clouds
3:54 PM 27.0 °F 17.3 °F 15.1 °F 61% 30.27 in 10.0 mi NW 10.4 mph - N/A   Scattered Clouds
4:54 PM 25.0 °F 16.3 °F 15.1 °F 66% 30.28 in 10.0 mi North 8.1 mph - N/A   Scattered Clouds
5:54 PM 24.1 °F 15.2 °F 15.1 °F 69% 30.30 in 10.0 mi North 8.1 mph - N/A   Scattered Clouds
6:54 PM 23.0 °F 15.8 °F 15.1 °F 72% 30.31 in 10.0 mi North 5.8 mph - N/A   Scattered Clouds
7:54 PM 24.1 °F - 14.0 °F 65% 30.32 in 10.0 mi Calm Calm - N/A   Mostly Cloudy
8:54 PM 24.1 °F - 15.1 °F 69% 30.32 in 10.0 mi Calm Calm - N/A   Mostly Cloudy
9:54 PM 23.0 °F 17.0 °F 15.1 °F 72% 30.32 in 10.0 mi North 4.6 mph - N/A   Mostly Cloudy
10:54 PM 23.0 °F 17.0 °F 14.0 °F 68% 30.32 in 10.0 mi NNE 4.6 mph - N/A   Mostly Cloudy
11:54 PM 24.1 °F 19.7 °F 15.1 °F 69% 30.33 in 10.0 mi North 3.5 mph - N/A   Mostly Cloudy